Volver al catálogo

SL-8 DEB

ActivoLEO
NORAD 21179·DEBRIS·🇷🇺 Russia

Lanzado Feb 12, 1991 desde Plesetsk Cosmodrome

Loading…

Próximos Pases (próximas 24 horas)

TLE

ActualizadoSource: Space-Track

Época: Sep 14, 2026, 09:50 UTC

1 21179U 91009AS  26257.41007317 -.00000009  00000-0  50652-4 0  9996
2 21179  73.9908 144.5987 0121862   6.3109 167.8087 12.16221879580071

Sigue SL-8 DEB en tiempo real con AllMySat

Download on the App Store